Regional Weather Roundup
Issued by NWS

Home | Current Version | Previous Version | Graphics & Text | Print | Product List | Glossary On
Versions: 1 2 3 4 5 6 7 8 9 10 11 12 13 14 15 16 17 18 19 20 21 22 23 24 25 26 27 28 29 30 31 32 33 34 35 36 37 38 39 40 41 42 43 44 45 46 47 48 49 50
000
ASUS43 KMPX 281901
RWRMN
WEATHER ROUNDUP FOR MINNESOTA
NATIONAL WEATHER SERVICE TWIN CITIES/CHANHASSEN MN
200 PM CDT THU APR 28 2016


NOTE: "FAIR" INDICATES FEW OR NO CLOUDS BELOW 12,000 FEET WITH NO
SIGNIFICANT WEATHER AND/OR OBSTRUCTIONS TO VISIBILITY. N/A MEANS
CURRENT SKY AND/OR WEATHER CONDITIONS ARE NOT AVAILABLE.

MNZ060>063-068>070-282000-
   Twin Cities Metro

CITY           SKY/WX    TMP DP  RH WIND       PRES   REMARKS
TWIN CITIES    CLOUDY    42  35  76 NE16G24   30.01R
ST PAUL        LGT RAIN  41  35  79 E18G24    30.03R
CRYSTAL        LGT RAIN  42  36  79 E13G20    30.02R
BLAINE         LGT RAIN  43  37  81 E14       30.02R
EDEN PRAIRIE   LGT RAIN  44  36  73 E15       29.99R
SOUTH ST PAUL  CLOUDY    40  37  89 NE12G25   30.01S
LAKE ELMO      CLOUDY    41  36  81 E13       30.03S
$$
MNZ001>005-007-008-013>017-022>024-027-028-282000-
   Northwest Minnesota

CITY           SKY/WX    TMP DP  RH WIND       PRES   REMARKS
BEMIDJI        CLOUDY    54  23  29 E14G21    30.07S
HALLOCK        CLOUDY    55  10  16 E12G17    30.15F
ROSEAU         CLOUDY    52  23  32 E15       30.16S
WARROAD        CLOUDY    48  23  37 NE13      30.17F
THIEF RVR FALL PTSUNNY   52  19  28 NE13G22   30.13S
CROOKSTON      PTSUNNY   55  21  26 NE13G23   30.11F
FOSSTON        CLOUDY    54  25  32 NE13G18   30.09S
DETROIT LAKES  CLOUDY    52  21  30 NE12G18   30.05F
MOORHEAD       CLOUDY    55  19  24 N8        30.06F
PARK RAPIDS    PTSUNNY   52  18  26 NE12      30.05S
MAHNOMEN       FAIR      54  23  30 E23G31    30.06S
$$
MNZ006-009>011-018-025>026-282000-
   North Central Minnesota

CITY           SKY/WX    TMP DP  RH WIND       PRES   REMARKS
BAUDETTE       CLOUDY    53  21  28 NE15      30.13F
FLAG ISLAND    CLOUDY    46  18  31 N18       30.17S
INTL FALLS     CLOUDY    50  24  36 NE9       30.13F
WASKISH        CLOUDY    54  27  35 NE17      30.11F
BIG FORK       CLOUDY    54  21  28 NE10G21   30.10S
LONGVILLE      CLOUDY    54  21  28 E8        30.05S
GRAND RAPIDS   CLOUDY    54  21  28 NE6       30.08F
CRANE LAKE     CLOUDY    48  19  32 NE6       30.15S
ORR            CLOUDY    50  16  25 NE7       30.10S
COOK           CLOUDY    50  25  37 NE8       30.11S
WALKER         FAIR      51  24  34 E10       30.06F
$$
MNZ012-019>021-037-282000-
   Northeast Minnesota

CITY           SKY/WX    TMP DP  RH WIND       PRES   REMARKS
DULUTH         MOSUNNY   49  22  34 E22G30    30.09R
ELY            CLOUDY    50  21  32 N7        30.10F
HIBBING        CLOUDY    51  22  31 E10G21    30.07F
EVELETH        CLOUDY    52  19  28 E9G17     30.08F
DULUTH HARBOR  PTSUNNY   39  36  87 NE22      30.12R
TWO HARBORS    CLOUDY    48  27  43 NE14G21   30.09S
SILVER BAY     CLOUDY    46  25  42 NE10G21   30.11S
GRAND MARAIS     N/A     41  30  65 E10       30.15S
G MARAIS ARPRT CLOUDY    48  23  37 N8        30.11S
$$
MNZ029>031-032-039>041-046>048-054>057-064-282000-
   West Central Minnesota

CITY           SKY/WX    TMP DP  RH WIND       PRES   REMARKS
FERGUS FALLS   CLOUDY    52  25  35 NE7       30.03S
WHEATON        PTSUNNY   48  32  53 NE9       30.07S
MORRIS         LGT RAIN  39  36  87 SE3       30.04S
ALEXANDRIA     CLOUDY    47  26  44 E8        30.04S
ELBOW LAKE     CLOUDY    46  26  44 NE5       30.04F
WADENA         CLOUDY    52  25  35 E10       30.03S
GLENWOOD       LGT RAIN  41  36  81 E8        30.05R
APPLETON       MIX PCPN  34  34 100 NE5       30.06R WCI  30
BENSON         MIX PCPN  34  32  93 NE5       30.05S WCI  30
ORTONVILLE     RAIN      36  32  87 E5        30.06R
MADISON        LGT SNOW  34  34 100 N7        30.05S VSB 1   WCI  28
WILLMAR        CLOUDY    36  36 100 N7        30.04S
$$
MNZ033>034-036-042>043-049>051-058-059-282000-
   Central Minnesota

CITY           SKY/WX    TMP DP  RH WIND       PRES   REMARKS
ST CLOUD       CLOUDY    45  34  65 E8        30.03S
SAUK CENTRE    LGT RAIN  42  32  68 E8        30.05R
PAYNESVILLE    CLOUDY    39  36  88 NE7       30.04R
AITKIN         CLOUDY    59  14  17 E9G17     30.02S
PINE RIVER     CLOUDY    54  27  35 CALM      30.07F
BRAINERD       CLOUDY    55  21  26 VRB6      30.03F
STAPLES        CLOUDY    54  19  26 E12       30.04S
LONG PRAIRIE   CLOUDY    46  32  57 E7        30.04S
LITTLE FALLS   CLOUDY    48  28  46 E6        30.04S
LITCHFIELD     CLOUDY    41  41 100 NE12      30.02S
BUFFALO        CLOUDY    42  36  79 NE12      30.03S
MAPLE LAKE     CLOUDY    42  38  86 NE15G22   30.04R
HUTCHINSON     DRIZZLE   40  39  95 NE12G21   30.02R
$$
MNZ037-044-045-052-053-282000-
   East Central Minnesota

CITY           SKY/WX    TMP DP  RH WIND       PRES   REMARKS
PRINCETON      LGT RAIN  46  36  66 NE7       30.05R
MORA           MOSUNNY   48  28  46 S9        30.05S
CAMBRIDGE      CLOUDY    46  34  61 N3        30.02S
RUSH CITY      CLOUDY    48  29  48 W5        30.03S
MOOSE LAKE     CLOUDY    50  28  43 NE12G17   30.04S
HINCKLEY       FAIR      54  28  37 E3        30.02S
CLOQUET        MOSUNNY   48  16  27 E17G29    30.07R
MCGREGOR       CLOUDY    54  23  30 E17G24    30.05S
$$
MNZ071>073-080-081-089-090-097-098-282000-
   Southwest Minnesota

CITY           SKY/WX    TMP DP  RH WIND       PRES   REMARKS
MONTEVIDEO     FLURRIES  34  34 100 NE10      30.06R WCI  26
GRANITE FALLS  CLOUDY    37  35  94 N9        30.04S
CANBY          LGT SNOW  37  37  97 N9        30.05S
MARSHALL       CLOUDY    38  35  89 NE12      30.02R
REDWOOD FALLS  LGT RAIN  39  35  86 NE5       30.01R
OLIVIA         CLOUDY    37  34  87 NE10      30.01R
PIPESTONE      CLOUDY    39  36  87 NE8       29.98R
WINDOM         LGT RAIN  39  37  93 N13       29.97R
WORTHINGTON    CLOUDY    40  37  89 N14       29.96R
JACKSON        CLOUDY    41  36  81 NE13      29.96R
TRACY          CLOUDY    40  37  87 NE9       30.00R
SLAYTON        CLOUDY    38  37  94 N10       29.98R
$$
MNZ065>067-074>077-082>085-091>093-282000-
   South Central Minnesota

CITY           SKY/WX    TMP DP  RH WIND       PRES   REMARKS
MANKATO        CLOUDY    39  36  87 NE13      29.98R
NEW ULM        CLOUDY    39  36  87 NE10      29.99R
ST JAMES       CLOUDY    34  34 100 NE10      29.99R WCI  26
FAIRMONT       CLOUDY    39  30  70 NE12      29.95R
GLENCOE        CLOUDY    41  39  93 NE7       30.00R
OWATONNA       CLOUDY    41  34  75 E12       29.97R
WASECA         CLOUDY    39  34  81 NE10      29.98R
$$
MNZ078>079-086>088-094>096-282000-
   Southeast Minnesota

CITY           SKY/WX    TMP DP  RH WIND       PRES   REMARKS
ROCHESTER      CLOUDY    41  36  82 NE15      29.95R
RED WING       RAIN      39  36  87 E9G22     29.99R
STANTON        CLOUDY    42  35  74 E16       29.98R
DODGE CENTER   CLOUDY    39  34  81 E14       29.95R
WINONA         DRIZZLE   41  36  81 E12       29.99R
AUSTIN         CLOUDY    43  36  75 E10       29.94R
PRESTON        CLOUDY    41  37  84 NE7       29.94R
$$
ABBREVIATIONS USED IN REMARKS
   TC - TEMPERATURES IN CELSIUS
  WCI - WIND CHILL INDEX
   HX - HEAT INDEX
  VSB - VISIBILITY
$$



USA.gov is the U.S. government's official web portal to all federal, state and local government web resources and services.